This is the latest recevied weather packets stored in our database for station/object EA4HRG-10. If no packets are shown the sender has not sent any weather packets the latest 10 day(s).
| Time | Temp. | Humidity | Pressure | Rain* | Wind** | Luminosity | Snow |
|---|---|---|---|---|---|---|---|
| 1788575140 | 17.78° C | 48% | 1022.8 hPa | - | - | - | - |
| 1788574240 | 17.78° C | 46% | 1022.5 hPa | - | - | - | - |
| 1788573340 | 18.33° C | 46% | 1022.3 hPa | - | - | - | - |
| 1788572457 | 18.89° C | 44% | 1022.2 hPa | - | - | - | - |
| 1788571540 | 19.44° C | 43% | 1021.9 hPa | - | - | - | - |
| 1788570640 | 19.44° C | 42% | 1021.8 hPa | - | - | - | - |
| 1788569740 | 20° C | 41% | 1021.7 hPa | - | - | - | - |
| 1788568854 | 20° C | 41% | 1021.7 hPa | - | - | - | - |
| 1788567940 | 20.56° C | 40% | 1021.6 hPa | - | - | - | - |
| 1788567040 | 20.56° C | 38% | 1021.7 hPa | - | - | - | - |
| 1788566140 | 20.56° C | 36% | 1021.5 hPa | - | - | - | - |
| 1788565240 | 21.11° C | 34% | 1021.5 hPa | - | - | - | - |
| 1788564340 | 21.11° C | 36% | 1021.5 hPa | - | - | - | - |
| 1788563440 | 21.67° C | 35% | 1021.3 hPa | - | - | - | - |
| 1788562540 | 21.67° C | 35% | 1021.2 hPa | - | - | - | - |
| 1788561640 | 21.67° C | 34% | 1021.2 hPa | - | - | - | - |
| 1788560740 | 22.78° C | 32% | 1020.8 hPa | - | - | - | - |
| 1788559840 | 22.78° C | 30% | 1020.7 hPa | - | - | - | - |
| 1788558940 | 23.33° C | 31% | 1020.7 hPa | - | - | - | - |
| 1788558040 | 23.89° C | 28% | 1020.1 hPa | - | - | - | - |
| 1788557140 | 24.44° C | 28% | 1020 hPa | - | - | - | - |
| 1788556240 | 24.44° C | 27% | 1020.1 hPa | - | - | - | - |
| 1788555717 | 25° C | 27% | 1019.8 hPa | - | - | - | - |
| 1788555340 | 25° C | 27% | 1019.8 hPa | - | - | - | - |
| 1788554440 | 26.11° C | 24% | 1019.2 hPa | - | - | - | - |
* Rain since midnight (hover to see other rain measurements)
** Current wind speed in m/s (hover to see current wind gust speed)